Starlink 2565

operational
NORAD ID: 48280 Int'l Des: 2021-036 Owner: SPXS Country: US Constellation: starlink
LEOCIRCULARSTARLINK_TYPE

About Starlink 2565

Description loading...

Live Position

Loading 3D Globe...

Upcoming Passes

Altitude History

Altitude vs Time

uPlot chart will show altitude changes over time

Two-Line Element Set

1 48280U 21036E 25348.64177132 .00001815 00000-0 14073-3 0 9990
2 48280 53.0559 118.4112 0001286 76.5783 283.5349 15.06388411255285
Epoch: Dec 14, 2025 • Age: 29 hours

Current Status

Altitude 547.3 km
Velocity 7.59 km/s
Sub-Earth Point 16.39°N, 116.08°W
Launch Date Apr 29, 2021
Age 4.6 years
Type internet

Technical Details

Classification Payload
Mass 260.00 kg
Dry Mass 248.00 kg
Total Mass 260.00 kg
Length 0.20 m
Diameter 2.80 m
Span 9.00 m
Shape Box + pan
Manufacturer SPXS
Bus Type Starlink
Phase Status In Orbit
Owner/State SPXS/US

Large Constellations

Loading constellations...